Погода в Конкордии

Аргентина     31°22′57″S   58°00′55″W
темп.,
°C
ветер,
м/с
пор.,
м/с
влажн.,
%
обл.,
%
осадки,
мм/ч
давл.,
гПа
погр.,
м
30 ноября, вт
вт3000:00+17юз22660 0.0 100813
03:00+15юз22740 0.0 100832
06:00+14юз24810 0.0 101078
09:00+22ю35510 0.0 1011777
12:00+28ю46280 0.0 10111869
15:00+30ююв46230 0.0 10092664
18:00+29ююв46260 0.0 10071342
21:00+20юв39420 0.0 1009176
1 декабря, ср
ср100:00+17вюв4125196 0.0 1011304
03:00+14вюв24635 0.0 101185
06:00+13вюв36770 0.0 1012129
09:00+22в345219 0.0 1014687
12:00+28ююв33305 0.0 10131714
15:00+30ююв34248 0.0 10112212
18:00+29ююв4529100 0.0 10101420
21:00+22юв41147100 0.0 1012261
2 декабря, чт
чт200:00+19в38610 0.0 1013160
03:00+16в37760 0.0 1013137
06:00+15в39900 0.0 1014208
09:00+24всв45480 0.0 1015714
12:00+30вюв44290 0.0 10141747
15:00+33юв45210 0.0 10112394
18:00+31юв56220 0.0 10101902
21:00+22вюв410380 0.0 1011200
3 декабря, пт
пт300:00+19в312540 0.0 1013275
03:00+16в412690 0.0 1012312
06:00+14в310830 0.0 1013237
09:00+23всв46460 0.0 1014750
12:00+30в45235 0.0 10121547
15:00+34в45160 0.0 10092157
18:00+33в55180 0.0 10081997
21:00+25в513350 0.0 1010372
4 декабря, сб
сб400:00+22в5144916 0.0 1011474
03:00+19в41269100 0.0 1011444
06:00+18вюв4974100 0.0 1013327
09:00+20в3661100 0.0 1014412
12:00+25ю3344100 0.0 1014951
15:00+24ююв4549100 0.0 1013582
18:00+24ююв364780 0.0 1012545
21:00+21ююв225560 0.0 101319